Tracking 23726 objects as of 22-Sep-2021
HD Live streaming from Space Station
objects crossing your sky now

STARLINK-1274

Track STARLINK-1274 now!
10-day predictions
STARLINK-1274 is classified as:


NORAD ID: 45387
Int'l Code: 2020-019AD
Perigee: 553.6 km
Apogee: 555.2 km
Inclination: 53.1 °
Period: 95.6 minutes
Semi major axis: 6925 km
RCS: Unknown
Launch date: March 18, 2020
Source: United States (US)
Launch site: AIR FORCE EASTERN TEST RANGE (AFETR)
aabbcc
Your satellite tracking list
Your tracking list is empty




NASA's NSSDC Master Catalog

Two Line Element Set (TLE):
1 45387U 20019AD  21265.41658090 -.00000596  00000-0 -21164-4 0  9998
2 45387  53.0533 260.7211 0001161  64.9072 295.2038 15.06393254 84430
Source of the keplerian elements: AFSPC